Date String (YYYY-MM-DD hh:mm:ss) UTC,Instrument flags,Ambient pressure (hPa),Sample flow (lpm),Bypass flow (lpm),Sample temperature (°C),Ambient temperature (°C),ASC tube jacket temperature (°C),LED temperature (°C),Box temperature (°C),Sample RH (%),Span deviation,Mass concentration (μg/m³),Mass concentration (μg/m³),Mass concentration (μg/m³)
DateTimeUTC,F1_M11,P_M11,Q1_M11,Q2_M11,T1_M11,T2_M11,T3_M11,T4_M11,T5_M11,U1_M11,ZSPAN_M11,X0_M11,X2_M11,X1_M11
2021-08-27 11:00:00,,0827.2,5.01,0.00,30.2,29.3,00.0,39.2,32.0,19.5,0000.0,0003.92,0002.87,0002.61
2021-08-27 11:01:00,,0827.2,5.01,0.00,30.2,28.3,00.0,39.2,31.7,19.5,0000.0,0003.85,0002.88,0002.62
2021-08-27 11:02:00,,0827.2,4.98,0.00,30.0,26.6,00.0,39.2,31.3,19.7,0000.0,0003.84,0002.88,0002.62
2021-08-27 11:03:00,,0827.2,5.01,0.00,29.9,26.4,00.0,39.1,31.2,19.7,0000.5,0003.76,0002.84,0002.61
2021-08-27 11:04:00,,0827.2,5.00,0.00,29.8,26.8,00.0,39.1,31.2,19.8,0001.0,0003.71,0002.82,0002.60
2021-08-27 11:05:00,,0827.2,4.98,0.00,29.7,27.2,00.0,39.0,31.2,19.9,0000.0,0003.40,0002.79,0002.58
2021-08-27 11:06:00,,0827.2,5.01,0.00,29.7,27.5,00.0,39.0,31.3,19.9,0000.0,0003.54,0002.82,0002.59
2021-08-27 11:07:00,,0827.2,4.99,0.00,29.7,27.8,00.0,39.0,31.3,20.0,0000.0,0003.62,0002.84,0002.60
2021-08-27 11:08:00,,0827.2,5.01,0.00,29.7,28.0,00.0,38.9,31.4,20.0,0000.0,0003.82,0002.88,0002.59
2021-08-27 11:09:00,,0827.2,5.00,0.00,29.7,28.1,00.0,38.9,31.4,20.0,0000.0,0003.82,0002.88,0002.60
2021-08-27 11:10:00,,0827.2,5.00,0.00,29.7,28.2,00.0,38.9,31.4,20.0,0000.0,0003.84,0002.89,0002.60
2021-08-27 11:11:00,,0827.2,4.99,0.00,29.7,28.4,00.0,38.9,31.4,19.9,0001.3,0003.87,0002.89,0002.59
2021-08-27 11:12:00,,0827.2,5.00,0.00,29.7,28.4,00.0,38.9,31.5,20.0,0001.6,0003.84,0002.87,0002.58
2021-08-27 11:13:00,,0827.2,5.01,0.00,29.7,28.5,00.0,38.9,31.5,19.8,0000.0,0003.82,0002.85,0002.56
2021-08-27 11:14:00,,0827.2,5.00,0.00,29.8,28.6,00.0,38.9,31.5,19.8,0000.4,0003.91,0002.87,0002.56
2021-08-27 11:15:00,,0827.2,5.00,0.00,29.8,28.6,00.0,38.9,31.5,19.8,0001.0,0003.99,0002.89,0002.57
2021-08-27 11:16:00,,0827.1,4.99,0.00,29.8,28.7,00.0,38.9,31.5,19.8,0001.1,0003.99,0002.92,0002.57
2021-08-27 11:17:00,,0827.1,5.00,0.00,29.8,28.7,00.0,38.9,31.5,19.8,0001.3,0003.95,0002.92,0002.57
2021-08-27 11:18:00,,0827.2,5.01,0.00,29.8,28.7,00.0,38.9,31.5,19.7,0001.4,0003.87,0002.91,0002.55
2021-08-27 11:19:00,,0827.2,4.99,0.00,29.8,28.7,00.0,38.9,31.5,19.8,0001.4,0003.67,0002.86,0002.56
2021-08-27 11:20:00,,0827.1,4.99,0.00,29.8,28.7,00.0,38.9,31.6,19.8,0001.3,0003.65,0002.84,0002.54
2021-08-27 11:21:00,,0827.1,5.00,0.00,29.8,28.8,00.0,38.9,31.6,19.8,0001.5,0003.69,0002.84,0002.54
2021-08-27 11:22:00,,0827.0,5.00,0.00,29.9,28.8,00.0,38.9,31.6,19.6,0001.6,0003.72,0002.84,0002.53
2021-08-27 11:23:00,,0827.2,5.01,0.00,29.9,28.8,00.0,38.9,31.6,19.6,0000.4,0003.70,0002.85,0002.54
2021-08-27 11:24:00,,0827.1,4.99,0.00,29.9,28.8,00.0,38.9,31.6,19.7,0001.1,0003.80,0002.89,0002.55
2021-08-27 11:25:00,,0827.2,5.01,0.00,29.9,28.9,00.0,39.0,31.7,19.6,0000.2,0003.93,0002.95,0002.56
2021-08-27 11:26:00,,0827.0,4.99,0.00,29.9,28.9,00.0,39.0,31.6,19.6,0000.0,0003.88,0002.94,0002.55
2021-08-27 11:27:00,,0827.0,4.99,0.00,29.9,28.9,00.0,39.0,31.6,19.7,0000.0,0003.83,0002.92,0002.54
2021-08-27 11:28:00,,0826.9,5.00,0.00,29.9,28.9,00.0,39.0,31.6,19.8,0000.0,0003.72,0002.87,0002.54
2021-08-27 11:29:00,,0826.9,5.01,0.00,29.9,29.0,00.0,39.0,31.6,19.7,0000.0,0003.71,0002.86,0002.55
2021-08-27 11:30:00,,0827.1,5.01,0.00,29.9,29.0,00.0,39.0,31.6,19.6,0000.0,0004.23,0002.89,0002.56
2021-08-27 11:31:00,,0827.3,5.00,0.00,29.9,29.0,00.0,39.0,31.6,19.6,0000.0,0005.07,0002.95,0002.59
2021-08-27 11:32:00,,0827.2,4.99,0.00,29.9,29.0,00.0,39.0,31.6,19.6,0000.0,0005.02,0002.95,0002.61
2021-08-27 11:33:00,,0827.3,5.00,0.00,29.9,29.0,00.0,39.0,31.6,19.5,0000.3,0004.96,0002.96,0002.62
2021-08-27 11:34:00,,0826.9,5.00,0.00,29.9,29.0,00.0,39.0,31.6,19.4,0002.1,0005.00,0002.98,0002.64
2021-08-27 11:35:00,,0826.9,5.00,0.00,29.9,29.0,00.0,39.0,31.7,19.4,0002.6,0005.01,0002.99,0002.67
2021-08-27 11:36:00,,0826.9,4.98,0.00,29.9,29.0,00.0,39.0,31.7,19.4,0002.9,0004.90,0002.96,0002.68
2021-08-27 11:37:00,,0827.0,5.00,0.00,30.0,29.0,00.0,39.0,31.7,19.3,0002.4,0004.92,0002.97,0002.70
2021-08-27 11:38:00,,0826.9,5.01,0.00,30.0,29.0,00.0,39.0,31.7,19.3,0002.3,0004.97,0003.01,0002.73
2021-08-27 11:39:00,,0826.9,5.00,0.00,30.0,29.1,00.0,39.0,31.7,19.4,0002.2,0005.09,0003.05,0002.74
2021-08-27 11:40:00,,0826.8,4.99,0.00,30.0,29.1,00.0,39.1,31.8,19.3,0002.8,0005.15,0003.07,0002.75
2021-08-27 11:41:00,,0827.0,5.01,0.00,30.0,29.1,00.0,39.1,31.8,19.2,0002.9,0004.81,0003.08,0002.77
2021-08-27 11:42:00,,0826.9,4.99,0.00,30.0,29.1,00.0,39.1,31.7,19.2,0002.7,0004.00,0003.11,0002.78
2021-08-27 11:43:00,,0826.8,5.01,0.00,30.1,29.1,00.0,39.1,31.8,19.2,0002.5,0004.09,0003.13,0002.78
2021-08-27 11:44:00,,0826.8,5.00,0.00,30.1,29.1,00.0,39.1,31.9,19.2,0001.8,0004.13,0003.14,0002.79
2021-08-27 11:45:00,,0826.8,5.00,0.00,30.1,29.2,00.0,39.1,31.8,19.2,0002.1,0004.16,0003.15,0002.80
2021-08-27 11:46:00,,0826.8,5.00,0.00,30.1,29.2,00.0,39.1,31.8,19.3,0001.3,0004.36,0003.14,0002.80
2021-08-27 11:47:00,,0826.9,5.01,0.00,30.1,27.8,00.0,39.1,31.5,19.4,0000.0,0004.31,0003.14,0002.80
2021-08-27 11:48:00,,0827.0,5.00,0.00,29.9,26.2,00.0,39.1,31.1,19.6,0000.0,0004.20,0003.11,0002.79
2021-08-27 11:49:00,,0827.0,5.00,0.00,29.8,26.2,00.0,39.1,31.1,19.7,0000.0,0004.64,0003.10,0002.78
2021-08-27 11:50:00,,0827.0,5.01,0.00,29.7,26.6,00.0,39.0,31.1,19.9,0000.0,0005.78,0003.10,0002.79
2021-08-27 11:51:00,,0826.8,4.99,0.00,29.7,27.1,00.0,39.0,31.2,19.9,0002.5,0005.75,0003.09,0002.79
2021-08-27 11:52:00,,0826.9,5.00,0.00,29.7,27.4,00.0,38.9,31.2,20.0,0000.9,0005.91,0003.11,0002.79
2021-08-27 11:53:00,,0826.8,5.00,0.00,29.7,27.7,00.0,38.9,31.3,20.0,0000.5,0005.88,0003.08,0002.78
2021-08-27 11:54:00,,0826.8,5.00,0.00,29.7,27.9,00.0,38.9,31.3,19.9,0002.3,0005.84,0003.08,0002.79
2021-08-27 11:55:00,,0826.9,5.00,0.00,29.7,28.1,00.0,38.9,31.3,20.0,0000.8,0005.97,0003.09,0002.78
2021-08-27 11:56:00,,0827.1,4.99,0.00,29.7,28.2,00.0,38.9,31.4,20.1,0000.0,0006.22,0003.06,0002.76
2021-08-27 11:57:00,,0826.9,5.00,0.00,29.7,28.4,00.0,38.9,31.4,20.1,0001.1,0005.98,0003.04,0002.74
2021-08-27 11:58:00,,0827.0,5.00,0.00,29.7,28.5,00.0,38.9,31.4,20.0,0002.8,0006.10,0003.07,0002.73
2021-08-27 11:59:00,,0826.8,5.00,0.00,29.7,28.6,00.0,38.9,31.4,20.0,0002.1,0006.21,0003.10,0002.72
